Location: Antichan
(42.9728°N, 0.6667°E)
Time: 18:01:48
(UTC+00:00)

Cosmos 2297 Rocket - Pass Details

Date: 15 August 2020
Orbit: 838 x 845 km, 71.0° (Epoch: 20 September)

Event Time Altitude Azimuth Distance (km) Brightness Sun altitude
Exits shadow 22:32:33 12° 63° (ENE) 2,290 4.4 -29.8°
Drops below altitude 10° 22:33:17 10° 57° (ENE) 2,461 4.7 -29.8°
Sets 22:36:25 0° 40° (NE) 3,403 5.7 -30.1°
